Hourly Data Report for June 11, 2012

All times are specified in Local Standard Time (LST). Add 1 hour to adjust for Daylight Saving Time where and when it is observed.

MONCTON INTL A
NEW BRUNSWICK

46°06'44.000" N
64°40'43.000" W
70.70 m
8103201
71705
YQM

Download Data

Hourly Data (June 2012)
Hourly Data Report for June 11, 2012
Temp Definition
°C
Dew Point Temp Definition
°C
Rel Hum Definition
%
Wind Dir Definition
10's deg

Wind Spd Definition
km/h
Visibility Definition
km
Stn Press Definition
kPa
Hmdx Definition


Wind Chill Definition


Weather Definition


TIME
00:00 9.1 9.1 100 1 5 0.4 101.67     Fog
01:00 8.8 8.8 100 5 5 0.4 101.65     Fog
02:00 8.5 8.5 100 3 6 0.4 101.62     Fog
03:00 8.2 8.2 100 29 10 1.0 101.71     Fog
04:00 8.0 8.0 100 30 8 1.0 101.73     Fog
05:00 7.4 7.4 100 32 8 0.4 101.78     Fog
06:00 7.5 7.5 100 26 6 0.2 101.79     Fog
07:00 8.2 8.2 100 25 6 0.2 101.85     Fog
08:00 8.6 8.6 100 31 8 6.4 101.88     Fog
09:00 10.1 9.2 94   0 10.0 101.85     LegendNANA
10:00 14.3 10.0 75   0 10.0 101.84     LegendNANA
11:00 17.2 11.5 69   0 10.0 101.81     Mostly Cloudy
12:00 18.7 11.8 64 20 7 10.0 101.79     LegendNANA
13:00 20.5 11.5 56 22 5 10.0 101.70     LegendNANA
14:00 21.3 8.4 43 18 17 10.0 101.61     Mostly Cloudy
15:00 21.9 8.2 41 16 17 10.0 101.54     LegendNANA
16:00 21.6 8.3 42 13 15 10.0 101.49     LegendNANA
17:00 21.3 9.0 45 15 16 10.0 101.43     Mostly Cloudy
18:00 20.4 7.6 43 16 20 10.0 101.45     LegendNANA
19:00 20.5 7.6 43 16 16 10.0 101.45     LegendNANA
20:00 17.3 7.5 52 16 11 10.0 101.46     Mainly Clear
21:00 15.3 7.2 58 16 10 10.0 101.46     LegendNANA
22:00 13.1 7.4 68 16 8 10.0 101.43     LegendNANA
23:00 11.5 9.1 85 18 8 10.0 101.43     Mainly Clear

Notes on Data Quality.

Legend

  • E = Estimated
  • M = Missing
  • NA = Not Available
Date modified: